Information on these data can be found in provided Readme document
Contact Info: Zachary Fasnacht (zachary.fasnacht@ssaihq.com); Nickolay Krotkov (nickolay.a.krotkov@nasa.gov); Lok Lamsal (lok.lamsal@nasa.gov)

FillValue: -999.
ScaleFactor: 1e15
Units: molecules/cm^2

Date(yyyy-mm-dd),City,Country,LonCenter,LatCenter,BoundingCoordinates,Median,Q1,Q3,Mean,Baseline_Median,Baseline_Q1,Baseline_Q3,Baseline_Mean,NumGoodSamples,NumTotalSamples
2015-01-01,Beijing,China,116.4167,39.9167,[115.9167 39.4167 116.9167 40.4167],20.265,11.933,27.043,21.258,17.452,10.272,26.847,19.998,214.0,620.0
2015-01-02,Beijing,China,116.4167,39.9167,[115.9167 39.4167 116.9167 40.4167],20.075,10.913,27.043,20.684,17.921,10.533,27.501,19.768,237.0,615.0
2015-01-03,Beijing,China,116.4167,39.9167,[115.9167 39.4167 116.9167 40.4167],17.251,9.99,24.927,19.165,16.916,10.293,24.886,19.124,221.0,613.0
2015-01-04,Beijing,China,116.4167,39.9167,[115.9167 39.4167 116.9167 40.4167],18.843,11.069,24.631,19.323,17.126,10.1,24.593,19.057,253.0,608.0
2015-01-05,Beijing,China,116.4167,39.9167,[115.9167 39.4167 116.9167 40.4167],19.596,10.511,24.852,19.828,17.651,10.234,25.391,19.465,218.0,607.0
2015-01-06,Beijing,China,116.4167,39.9167,[115.9167 39.4167 116.9167 40.4167],20.075,11.844,25.315,20.074,17.431,9.897,24.768,19.022,239.0,608.0
2015-01-07,Beijing,China,116.4167,39.9167,[115.9167 39.4167 116.9167 40.4167],18.972,10.913,25.347,19.831,17.275,10.098,26.126,19.049,226.0,598.0
2015-01-08,Beijing,China,116.4167,39.9167,[115.9167 39.4167 116.9167 40.4167],20.075,12.858,25.832,20.86,15.643,9.248,24.919,18.174,197.0,615.0
2015-01-09,Beijing,China,116.4167,39.9167,[115.9167 39.4167 116.9167 40.4167],19.016,11.579,25.347,19.899,14.985,8.8,25.139,17.635,225.0,618.0
2015-01-10,Beijing,China,116.4167,39.9167,[115.9167 39.4167 116.9167 40.4167],19.596,11.844,25.347,20.192,14.882,8.53,23.24,17.401,195.0,578.0
2015-01-11,Beijing,China,116.4167,39.9167,[115.9167 39.4167 116.9167 40.4167],19.81,11.844,25.832,20.844,15.03,8.38,22.796,17.511,214.0,579.0
2015-01-12,Beijing,China,116.4167,39.9167,[115.9167 39.4167 116.9167 40.4167],17.934,10.214,22.689,19.31,15.243,8.377,23.457,17.727,191.0,577.0
2015-01-13,Beijing,China,116.4167,39.9167,[115.9167 39.4167 116.9167 40.4167],20.075,11.844,25.812,21.966,15.185,8.547,23.62,18.061,210.0,573.0
2015-01-14,Beijing,China,116.4167,39.9167,[115.9167 39.4167 116.9167 40.4167],21.672,15.306,27.621,24.813,15.035,8.685,22.406,17.277,171.0,571.0
2015-01-15,Beijing,China,116.4167,39.9167,[115.9167 39.4167 116.9167 40.4167],21.833,15.975,27.485,23.316,15.706,9.102,23.004,17.503,186.0,583.0
2015-01-16,Beijing,China,116.4167,39.9167,[115.9167 39.4167 116.9167 40.4167],22.514,15.975,28.894,26.475,15.81,8.467,23.875,17.935,205.0,583.0
2015-01-17,Beijing,China,116.4167,39.9167,[115.9167 39.4167 116.9167 40.4167],23.573,17.674,29.555,27.688,15.233,8.54,24.208,18.696,182.0,591.0
2015-01-18,Beijing,China,116.4167,39.9167,[115.9167 39.4167 116.9167 40.4167],23.258,17.466,29.555,27.405,16.324,8.813,23.562,18.661,189.0,587.0
2015-01-19,Beijing,China,116.4167,39.9167,[115.9167 39.4167 116.9167 40.4167],25.315,17.202,33.73,29.831,15.879,8.299,25.136,18.87,157.0,585.0
2015-01-20,Beijing,China,116.4167,39.9167,[115.9167 39.4167 116.9167 40.4167],20.919,10.778,28.894,24.676,15.704,7.259,25.251,18.248,189.0,580.0
2015-01-21,Beijing,China,116.4167,39.9167,[115.9167 39.4167 116.9167 40.4167],20.04,10.405,29.779,25.006,15.246,7.683,25.53,18.733,168.0,580.0
2015-01-22,Beijing,China,116.4167,39.9167,[115.9167 39.4167 116.9167 40.4167],17.565,10.0,27.946,23.306,13.612,7.585,25.963,18.739,204.0,579.0
2015-01-23,Beijing,China,116.4167,39.9167,[115.9167 39.4167 116.9167 40.4167],17.565,10.0,27.946,23.306,13.935,8.571,25.874,18.953,204.0,569.0
2015-01-24,Beijing,China,116.4167,39.9167,[115.9167 39.4167 116.9167 40.4167],16.141,10.0,27.932,22.661,14.218,8.746,26.627,19.148,204.0,588.0
2015-01-25,Beijing,China,116.4167,39.9167,[115.9167 39.4167 116.9167 40.4167],16.436,10.0,27.932,22.779,12.996,8.013,24.709,18.063,215.0,623.0
2015-01-26,Beijing,China,116.4167,39.9167,[115.9167 39.4167 116.9167 40.4167],16.141,10.0,27.532,22.297,13.017,8.032,24.306,17.976,196.0,615.0
2015-01-27,Beijing,China,116.4167,39.9167,[115.9167 39.4167 116.9167 40.4167],17.229,10.751,27.932,22.415,13.128,8.184,23.306,17.517,223.0,613.0
2015-01-28,Beijing,China,116.4167,39.9167,[115.9167 39.4167 116.9167 40.4167],15.892,9.849,25.252,20.028,13.225,8.322,22.751,17.074,204.0,610.0
2015-01-29,Beijing,China,116.4167,39.9167,[115.9167 39.4167 116.9167 40.4167],15.71,9.108,23.403,18.623,13.058,7.943,22.095,16.601,234.0,608.0
2015-01-30,Beijing,China,116.4167,39.9167,[115.9167 39.4167 116.9167 40.4167],13.781,7.841,17.565,17.214,12.925,7.001,21.067,16.063,197.0,603.0
2015-01-31,Beijing,China,116.4167,39.9167,[115.9167 39.4167 116.9167 40.4167],11.575,6.906,16.808,13.168,12.821,7.249,21.035,15.709,189.0,616.0
2015-02-01,Beijing,China,116.4167,39.9167,[115.9167 39.4167 116.9167 40.4167],11.767,6.906,16.808,13.187,11.207,6.466,19.073,14.153,219.0,615.0
2015-02-02,Beijing,China,116.4167,39.9167,[115.9167 39.4167 116.9167 40.4167],11.767,6.998,16.732,13.074,10.957,6.295,17.895,13.609,224.0,620.0
2015-02-03,Beijing,China,116.4167,39.9167,[115.9167 39.4167 116.9167 40.4167],12.162,7.079,16.85,14.538,10.544,6.083,16.047,12.994,241.0,615.0
2015-02-04,Beijing,China,116.4167,39.9167,[115.9167 39.4167 116.9167 40.4167],14.847,7.858,17.747,15.773,10.756,5.862,14.835,12.586,209.0,616.0
2015-02-05,Beijing,China,116.4167,39.9167,[115.9167 39.4167 116.9167 40.4167],16.008,9.108,23.403,17.538,11.339,6.759,17.183,12.959,236.0,610.0
2015-02-06,Beijing,China,116.4167,39.9167,[115.9167 39.4167 116.9167 40.4167],15.892,9.108,22.981,17.664,11.133,6.841,16.583,12.351,200.0,610.0
2015-02-07,Beijing,China,116.4167,39.9167,[115.9167 39.4167 116.9167 40.4167],16.291,10.227,19.915,17.514,11.554,7.292,16.483,12.613,240.0,609.0
2015-02-08,Beijing,China,116.4167,39.9167,[115.9167 39.4167 116.9167 40.4167],16.808,11.164,22.148,18.541,10.932,7.247,16.531,12.438,212.0,599.0
2015-02-09,Beijing,China,116.4167,39.9167,[115.9167 39.4167 116.9167 40.4167],16.228,9.451,19.611,17.071,10.856,6.783,16.339,12.236,227.0,614.0
2015-02-10,Beijing,China,116.4167,39.9167,[115.9167 39.4167 116.9167 40.4167],15.669,7.891,19.533,16.387,11.03,6.593,16.848,12.43,256.0,616.0
2015-02-11,Beijing,China,116.4167,39.9167,[115.9167 39.4167 116.9167 40.4167],15.182,7.858,18.951,15.818,10.542,6.594,16.293,12.036,229.0,576.0
2015-02-12,Beijing,China,116.4167,39.9167,[115.9167 39.4167 116.9167 40.4167],15.182,7.858,18.951,15.818,10.174,6.26,16.256,11.876,229.0,576.0
2015-02-13,Beijing,China,116.4167,39.9167,[115.9167 39.4167 116.9167 40.4167],15.28,7.884,19.609,16.658,10.157,5.997,15.469,11.618,199.0,574.0
2015-02-14,Beijing,China,116.4167,39.9167,[115.9167 39.4167 116.9167 40.4167],15.28,7.884,19.609,16.658,9.705,5.989,15.331,11.435,199.0,572.0
2015-02-15,Beijing,China,116.4167,39.9167,[115.9167 39.4167 116.9167 40.4167],16.029,8.243,20.008,17.762,10.18,6.079,16.142,11.933,181.0,567.0
2015-02-16,Beijing,China,116.4167,39.9167,[115.9167 39.4167 116.9167 40.4167],13.926,7.891,19.533,16.3,11.257,6.429,17.405,12.629,189.0,577.0
2015-02-17,Beijing,China,116.4167,39.9167,[115.9167 39.4167 116.9167 40.4167],15.233,7.891,20.008,17.573,11.734,6.838,17.543,13.132,208.0,578.0
2015-02-18,Beijing,China,116.4167,39.9167,[115.9167 39.4167 116.9167 40.4167],11.478,6.604,19.122,14.508,11.819,6.925,17.516,13.137,202.0,582.0
2015-02-19,Beijing,China,116.4167,39.9167,[115.9167 39.4167 116.9167 40.4167],10.927,6.304,18.784,13.901,12.734,7.72,18.417,13.742,227.0,574.0
2015-02-20,Beijing,China,116.4167,39.9167,[115.9167 39.4167 116.9167 40.4167],8.769,5.672,16.556,11.226,11.651,7.058,17.872,12.898,200.0,576.0
2015-02-21,Beijing,China,116.4167,39.9167,[115.9167 39.4167 116.9167 40.4167],8.769,5.672,16.556,11.226,11.349,6.987,18.137,13.027,200.0,571.0
2015-02-22,Beijing,China,116.4167,39.9167,[115.9167 39.4167 116.9167 40.4167],6.992,4.743,10.188,9.394,11.201,6.7,16.984,12.665,160.0,571.0
2015-02-23,Beijing,China,116.4167,39.9167,[115.9167 39.4167 116.9167 40.4167],8.341,5.672,14.747,11.007,11.483,7.285,18.122,13.038,199.0,571.0
2015-02-24,Beijing,China,116.4167,39.9167,[115.9167 39.4167 116.9167 40.4167],8.786,5.672,15.597,11.559,13.115,8.561,19.219,14.378,173.0,564.0
2015-02-25,Beijing,China,116.4167,39.9167,[115.9167 39.4167 116.9167 40.4167],9.471,5.672,16.274,11.992,13.104,8.587,18.953,14.481,170.0,583.0
2015-02-26,Beijing,China,116.4167,39.9167,[115.9167 39.4167 116.9167 40.4167],10.656,5.97,18.034,14.065,13.478,8.693,19.409,14.969,197.0,618.0
2015-02-27,Beijing,China,116.4167,39.9167,[115.9167 39.4167 116.9167 40.4167],10.656,5.97,18.034,14.065,13.448,8.479,19.442,15.09,197.0,613.0
2015-02-28,Beijing,China,116.4167,39.9167,[115.9167 39.4167 116.9167 40.4167],11.263,6.286,18.196,14.376,13.413,8.914,19.553,15.371,214.0,611.0
2015-03-01,Beijing,China,116.4167,39.9167,[115.9167 39.4167 116.9167 40.4167],11.263,6.286,18.196,14.376,13.798,8.953,19.915,15.409,214.0,608.0
2015-03-02,Beijing,China,116.4167,39.9167,[115.9167 39.4167 116.9167 40.4167],8.865,5.672,16.73,12.845,12.77,8.302,18.932,14.647,244.0,603.0
2015-03-03,Beijing,China,116.4167,39.9167,[115.9167 39.4167 116.9167 40.4167],9.47,5.503,18.061,13.545,12.827,8.243,19.232,14.738,206.0,600.0
2015-03-04,Beijing,China,116.4167,39.9167,[115.9167 39.4167 116.9167 40.4167],9.446,5.183,16.055,12.06,12.337,8.027,18.024,13.976,215.0,613.0
2015-03-05,Beijing,China,116.4167,39.9167,[115.9167 39.4167 116.9167 40.4167],10.999,5.98,18.034,13.819,12.328,7.454,17.956,13.921,234.0,617.0
2015-03-06,Beijing,China,116.4167,39.9167,[115.9167 39.4167 116.9167 40.4167],10.999,6.569,18.034,13.786,11.856,7.231,16.42,13.332,220.0,623.0
2015-03-07,Beijing,China,116.4167,39.9167,[115.9167 39.4167 116.9167 40.4167],12.473,6.704,19.162,15.32,11.528,7.025,16.792,13.402,243.0,615.0
2015-03-08,Beijing,China,116.4167,39.9167,[115.9167 39.4167 116.9167 40.4167],12.473,6.704,19.162,15.32,11.585,6.895,16.512,13.242,243.0,617.0
2015-03-09,Beijing,China,116.4167,39.9167,[115.9167 39.4167 116.9167 40.4167],12.706,6.715,19.106,15.44,11.754,7.154,16.915,13.522,253.0,611.0
2015-03-10,Beijing,China,116.4167,39.9167,[115.9167 39.4167 116.9167 40.4167],11.099,5.964,19.162,15.317,11.698,7.01,18.588,13.846,214.0,611.0
2015-03-11,Beijing,China,116.4167,39.9167,[115.9167 39.4167 116.9167 40.4167],12.706,6.569,21.762,15.939,11.13,7.053,17.222,13.432,234.0,610.0
2015-03-12,Beijing,China,116.4167,39.9167,[115.9167 39.4167 116.9167 40.4167],13.728,6.715,23.633,16.601,11.176,6.918,18.153,13.454,208.0,599.0
2015-03-13,Beijing,China,116.4167,39.9167,[115.9167 39.4167 116.9167 40.4167],12.373,6.749,18.654,14.545,10.779,6.674,16.497,12.853,206.0,614.0
2015-03-14,Beijing,China,116.4167,39.9167,[115.9167 39.4167 116.9167 40.4167],10.667,6.583,17.833,13.936,11.337,7.2,18.447,13.719,234.0,615.0
2015-03-15,Beijing,China,116.4167,39.9167,[115.9167 39.4167 116.9167 40.4167],10.28,6.569,17.606,13.652,12.331,7.428,18.456,14.042,217.0,576.0
2015-03-16,Beijing,China,116.4167,39.9167,[115.9167 39.4167 116.9167 40.4167],10.28,6.569,17.399,13.377,12.133,7.137,18.273,13.701,249.0,576.0
2015-03-17,Beijing,China,116.4167,39.9167,[115.9167 39.4167 116.9167 40.4167],13.515,6.817,18.654,15.05,13.224,7.571,18.413,14.167,219.0,574.0
2015-03-18,Beijing,China,116.4167,39.9167,[115.9167 39.4167 116.9167 40.4167],15.114,8.382,19.656,15.655,13.308,7.646,18.831,14.12,254.0,572.0
2015-03-19,Beijing,China,116.4167,39.9167,[115.9167 39.4167 116.9167 40.4167],16.252,9.124,21.655,16.837,13.814,7.76,19.954,14.684,214.0,565.0
2015-03-20,Beijing,China,116.4167,39.9167,[115.9167 39.4167 116.9167 40.4167],15.951,9.977,20.318,16.28,13.935,8.442,20.026,15.084,204.0,570.0
2015-03-21,Beijing,China,116.4167,39.9167,[115.9167 39.4167 116.9167 40.4167],15.964,9.977,21.075,16.483,14.0,8.371,20.408,15.207,222.0,574.0
2015-03-22,Beijing,China,116.4167,39.9167,[115.9167 39.4167 116.9167 40.4167],15.72,9.413,19.427,14.97,14.836,9.022,21.403,16.048,202.0,583.0
2015-03-23,Beijing,China,116.4167,39.9167,[115.9167 39.4167 116.9167 40.4167],15.878,9.977,19.941,15.794,15.736,9.826,21.392,16.748,209.0,576.0
2015-03-24,Beijing,China,116.4167,39.9167,[115.9167 39.4167 116.9167 40.4167],15.52,8.583,19.941,15.654,15.715,9.798,21.45,16.699,199.0,577.0
2015-03-25,Beijing,China,116.4167,39.9167,[115.9167 39.4167 116.9167 40.4167],15.52,8.583,19.941,15.654,15.648,9.928,21.322,16.404,199.0,569.0
2015-03-26,Beijing,China,116.4167,39.9167,[115.9167 39.4167 116.9167 40.4167],14.76,8.395,18.373,14.795,15.479,10.362,20.823,16.222,179.0,573.0
2015-03-27,Beijing,China,116.4167,39.9167,[115.9167 39.4167 116.9167 40.4167],15.298,8.583,19.339,15.204,15.756,10.075,21.385,16.419,204.0,571.0
2015-03-28,Beijing,China,116.4167,39.9167,[115.9167 39.4167 116.9167 40.4167],16.004,8.588,19.941,15.759,15.816,10.286,21.483,16.537,179.0,563.0
2015-03-29,Beijing,China,116.4167,39.9167,[115.9167 39.4167 116.9167 40.4167],15.52,7.297,19.656,14.945,15.03,9.041,20.542,15.714,172.0,577.0
2015-03-30,Beijing,China,116.4167,39.9167,[115.9167 39.4167 116.9167 40.4167],14.762,6.954,19.067,14.397,14.57,9.385,20.561,15.655,197.0,613.0
2015-03-31,Beijing,China,116.4167,39.9167,[115.9167 39.4167 116.9167 40.4167],15.298,7.297,19.676,14.898,14.98,9.951,20.743,16.004,165.0,600.0
2015-04-01,Beijing,China,116.4167,39.9167,[115.9167 39.4167 116.9167 40.4167],15.993,7.646,20.755,16.097,15.706,9.804,21.351,16.474,191.0,599.0
2015-04-02,Beijing,China,116.4167,39.9167,[115.9167 39.4167 116.9167 40.4167],14.132,6.069,19.999,15.365,15.765,10.073,21.467,16.917,156.0,596.0
2015-04-03,Beijing,China,116.4167,39.9167,[115.9167 39.4167 116.9167 40.4167],14.83,7.297,21.093,16.136,15.659,9.996,21.664,16.867,175.0,598.0
2015-04-04,Beijing,China,116.4167,39.9167,[115.9167 39.4167 116.9167 40.4167],14.824,6.28,20.755,15.906,15.241,9.328,21.708,16.535,155.0,596.0
2015-04-05,Beijing,China,116.4167,39.9167,[115.9167 39.4167 116.9167 40.4167],15.088,6.949,21.218,16.484,15.879,10.251,21.858,17.006,129.0,600.0
2015-04-06,Beijing,China,116.4167,39.9167,[115.9167 39.4167 116.9167 40.4167],14.788,6.937,20.18,15.54,15.454,9.947,21.09,16.105,156.0,599.0
2015-04-07,Beijing,China,116.4167,39.9167,[115.9167 39.4167 116.9167 40.4167],13.67,6.529,18.853,13.931,13.969,8.542,20.186,14.997,161.0,606.0
2015-04-08,Beijing,China,116.4167,39.9167,[115.9167 39.4167 116.9167 40.4167],14.444,7.084,19.999,15.504,14.25,8.766,20.001,15.216,180.0,601.0
2015-04-09,Beijing,China,116.4167,39.9167,[115.9167 39.4167 116.9167 40.4167],14.444,7.084,19.999,15.504,13.852,8.647,19.869,15.157,180.0,603.0
2015-04-10,Beijing,China,116.4167,39.9167,[115.9167 39.4167 116.9167 40.4167],14.454,8.42,20.18,16.055,14.129,8.904,19.851,15.377,210.0,592.0
2015-04-11,Beijing,China,116.4167,39.9167,[115.9167 39.4167 116.9167 40.4167],14.141,7.597,20.685,15.833,13.754,8.667,19.445,14.926,185.0,595.0
2015-04-12,Beijing,China,116.4167,39.9167,[115.9167 39.4167 116.9167 40.4167],14.001,7.297,20.18,15.541,13.572,8.473,19.252,14.83,191.0,596.0
2015-04-13,Beijing,China,116.4167,39.9167,[115.9167 39.4167 116.9167 40.4167],14.824,10.912,21.862,17.288,13.479,8.807,19.69,15.06,170.0,588.0
2015-04-14,Beijing,China,116.4167,39.9167,[115.9167 39.4167 116.9167 40.4167],14.83,10.912,21.906,17.587,13.617,8.723,19.89,15.228,155.0,604.0
2015-04-15,Beijing,China,116.4167,39.9167,[115.9167 39.4167 116.9167 40.4167],14.444,9.642,21.496,17.056,13.732,8.831,19.746,15.258,183.0,611.0
2015-04-16,Beijing,China,116.4167,39.9167,[115.9167 39.4167 116.9167 40.4167],14.141,9.196,19.868,15.958,13.504,8.528,19.353,14.799,157.0,572.0
2015-04-17,Beijing,China,116.4167,39.9167,[115.9167 39.4167 116.9167 40.4167],14.141,9.03,19.868,15.842,13.355,8.213,18.634,14.113,164.0,542.0
2015-04-18,Beijing,China,116.4167,39.9167,[115.9167 39.4167 116.9167 40.4167],12.965,8.33,19.141,15.009,13.176,8.24,18.623,14.119,145.0,536.0
2015-04-19,Beijing,China,116.4167,39.9167,[115.9167 39.4167 116.9167 40.4167],13.411,9.642,19.305,15.975,12.501,8.185,18.141,13.896,175.0,535.0
2015-04-20,Beijing,China,116.4167,39.9167,[115.9167 39.4167 116.9167 40.4167],13.458,10.912,19.32,16.371,12.229,8.182,17.864,13.812,172.0,536.0
2015-04-21,Beijing,China,116.4167,39.9167,[115.9167 39.4167 116.9167 40.4167],13.753,11.067,19.32,16.722,12.208,8.149,17.984,13.88,148.0,547.0
2015-04-22,Beijing,China,116.4167,39.9167,[115.9167 39.4167 116.9167 40.4167],14.456,11.983,21.874,18.039,12.644,8.847,19.002,14.5,167.0,547.0
2015-04-23,Beijing,China,116.4167,39.9167,[115.9167 39.4167 116.9167 40.4167],13.12,9.619,18.215,15.174,11.767,8.207,17.405,13.566,178.0,551.0
2015-04-24,Beijing,China,116.4167,39.9167,[115.9167 39.4167 116.9167 40.4167],13.12,9.619,18.215,15.174,11.824,7.891,17.776,13.508,178.0,546.0
2015-04-25,Beijing,China,116.4167,39.9167,[115.9167 39.4167 116.9167 40.4167],11.968,8.845,16.366,14.078,11.484,7.635,16.726,13.043,165.0,549.0
2015-04-26,Beijing,China,116.4167,39.9167,[115.9167 39.4167 116.9167 40.4167],9.959,7.689,14.44,12.503,11.073,7.553,16.385,13.024,195.0,544.0
2015-04-27,Beijing,China,116.4167,39.9167,[115.9167 39.4167 116.9167 40.4167],10.549,7.739,14.456,12.699,11.316,7.563,16.396,12.932,189.0,543.0
2015-04-28,Beijing,China,116.4167,39.9167,[115.9167 39.4167 116.9167 40.4167],10.947,7.758,14.489,12.707,10.659,7.261,15.856,12.443,216.0,544.0
2015-04-29,Beijing,China,116.4167,39.9167,[115.9167 39.4167 116.9167 40.4167],11.067,7.738,14.797,12.832,10.69,7.321,15.392,12.168,206.0,536.0
2015-04-30,Beijing,China,116.4167,39.9167,[115.9167 39.4167 116.9167 40.4167],11.683,8.164,16.366,13.28,10.253,7.226,15.009,12.028,214.0,551.0
2015-05-01,Beijing,China,116.4167,39.9167,[115.9167 39.4167 116.9167 40.4167],11.914,8.164,16.772,13.501,10.508,7.226,15.569,12.296,242.0,587.0
2015-05-02,Beijing,China,116.4167,39.9167,[115.9167 39.4167 116.9167 40.4167],11.914,8.265,16.882,13.563,10.712,7.326,15.59,12.361,235.0,611.0
2015-05-03,Beijing,China,116.4167,39.9167,[115.9167 39.4167 116.9167 40.4167],11.914,8.265,16.882,13.563,10.806,7.242,15.32,12.242,235.0,603.0
2015-05-04,Beijing,China,116.4167,39.9167,[115.9167 39.4167 116.9167 40.4167],10.575,7.689,15.897,12.361,10.653,7.134,15.154,12.007,205.0,622.0
2015-05-05,Beijing,China,116.4167,39.9167,[115.9167 39.4167 116.9167 40.4167],11.169,7.689,14.787,12.345,10.684,7.142,14.507,11.764,225.0,614.0
2015-05-06,Beijing,China,116.4167,39.9167,[115.9167 39.4167 116.9167 40.4167],10.705,7.639,14.787,12.269,10.596,7.032,14.479,11.662,219.0,609.0
2015-05-07,Beijing,China,116.4167,39.9167,[115.9167 39.4167 116.9167 40.4167],9.619,7.169,13.685,10.997,10.288,6.989,14.221,11.501,211.0,620.0
2015-05-08,Beijing,China,116.4167,39.9167,[115.9167 39.4167 116.9167 40.4167],10.139,6.948,14.266,11.299,10.608,7.153,14.503,11.762,212.0,625.0
2015-05-09,Beijing,China,116.4167,39.9167,[115.9167 39.4167 116.9167 40.4167],10.705,7.169,14.592,11.506,10.497,6.946,14.403,11.499,243.0,633.0
2015-05-10,Beijing,China,116.4167,39.9167,[115.9167 39.4167 116.9167 40.4167],10.957,7.169,14.592,11.557,10.204,6.866,14.007,11.214,232.0,624.0
2015-05-11,Beijing,China,116.4167,39.9167,[115.9167 39.4167 116.9167 40.4167],12.574,7.904,15.787,12.289,10.35,6.992,14.22,11.3,219.0,621.0
2015-05-12,Beijing,China,116.4167,39.9167,[115.9167 39.4167 116.9167 40.4167],10.957,7.216,14.592,11.534,9.858,6.851,13.765,11.03,247.0,617.0
2015-05-13,Beijing,China,116.4167,39.9167,[115.9167 39.4167 116.9167 40.4167],10.639,7.128,14.304,11.333,9.971,7.192,13.936,11.265,220.0,617.0
2015-05-14,Beijing,China,116.4167,39.9167,[115.9167 39.4167 116.9167 40.4167],11.082,7.598,15.032,11.627,10.053,7.356,13.901,11.214,242.0,616.0
2015-05-15,Beijing,China,116.4167,39.9167,[115.9167 39.4167 116.9167 40.4167],9.778,7.128,14.617,11.217,9.512,7.174,13.68,11.005,223.0,610.0
2015-05-16,Beijing,China,116.4167,39.9167,[115.9167 39.4167 116.9167 40.4167],9.778,7.054,13.907,10.693,9.663,7.253,13.249,10.677,227.0,628.0
2015-05-17,Beijing,China,116.4167,39.9167,[115.9167 39.4167 116.9167 40.4167],9.943,7.195,14.304,11.026,9.642,7.22,13.507,10.769,255.0,628.0
2015-05-18,Beijing,China,116.4167,39.9167,[115.9167 39.4167 116.9167 40.4167],9.943,7.195,14.304,11.026,9.598,7.233,13.36,10.72,255.0,596.0
2015-05-19,Beijing,China,116.4167,39.9167,[115.9167 39.4167 116.9167 40.4167],10.217,7.365,14.592,11.136,9.872,7.473,13.823,11.011,281.0,574.0
2015-05-20,Beijing,China,116.4167,39.9167,[115.9167 39.4167 116.9167 40.4167],9.778,7.195,14.592,11.025,9.624,6.926,13.66,10.721,261.0,578.0
2015-05-21,Beijing,China,116.4167,39.9167,[115.9167 39.4167 116.9167 40.4167],9.778,7.195,14.592,11.025,9.465,6.837,13.376,10.568,261.0,574.0
2015-05-22,Beijing,China,116.4167,39.9167,[115.9167 39.4167 116.9167 40.4167],10.393,7.637,14.865,11.495,9.277,6.757,13.143,10.265,238.0,569.0
2015-05-23,Beijing,China,116.4167,39.9167,[115.9167 39.4167 116.9167 40.4167],10.27,7.952,14.592,11.336,9.378,6.814,13.169,10.253,245.0,579.0
2015-05-24,Beijing,China,116.4167,39.9167,[115.9167 39.4167 116.9167 40.4167],10.004,7.911,13.896,11.252,9.183,6.756,12.958,10.177,245.0,578.0
2015-05-25,Beijing,China,116.4167,39.9167,[115.9167 39.4167 116.9167 40.4167],9.885,7.752,14.353,11.21,9.653,6.881,13.15,10.369,246.0,589.0
2015-05-26,Beijing,China,116.4167,39.9167,[115.9167 39.4167 116.9167 40.4167],9.778,7.518,13.75,10.975,9.908,6.989,13.185,10.427,254.0,585.0
2015-05-27,Beijing,China,116.4167,39.9167,[115.9167 39.4167 116.9167 40.4167],10.571,7.836,14.865,11.548,10.016,7.045,13.399,10.503,241.0,584.0
2015-05-28,Beijing,China,116.4167,39.9167,[115.9167 39.4167 116.9167 40.4167],10.571,7.836,14.865,11.548,10.34,7.146,13.53,10.686,241.0,578.0
2015-05-29,Beijing,China,116.4167,39.9167,[115.9167 39.4167 116.9167 40.4167],10.346,7.413,13.75,11.175,10.361,7.119,13.545,10.673,219.0,577.0
2015-05-30,Beijing,China,116.4167,39.9167,[115.9167 39.4167 116.9167 40.4167],10.346,7.472,13.563,10.99,10.162,7.01,13.497,10.497,215.0,576.0
2015-05-31,Beijing,China,116.4167,39.9167,[115.9167 39.4167 116.9167 40.4167],10.346,7.799,13.563,11.145,9.939,7.094,13.386,10.401,183.0,564.0
2015-06-01,Beijing,China,116.4167,39.9167,[115.9167 39.4167 116.9167 40.4167],8.651,6.763,12.036,9.758,9.712,6.852,12.682,10.122,192.0,582.0
2015-06-02,Beijing,China,116.4167,39.9167,[115.9167 39.4167 116.9167 40.4167],9.25,6.936,13.411,11.247,9.457,6.858,12.886,10.301,214.0,617.0
2015-06-03,Beijing,China,116.4167,39.9167,[115.9167 39.4167 116.9167 40.4167],9.039,6.543,12.721,11.089,9.269,6.7,12.617,10.085,188.0,612.0
2015-06-04,Beijing,China,116.4167,39.9167,[115.9167 39.4167 116.9167 40.4167],8.604,6.535,12.442,10.91,9.76,7.245,12.984,10.527,200.0,610.0
2015-06-05,Beijing,China,116.4167,39.9167,[115.9167 39.4167 116.9167 40.4167],8.604,6.535,12.442,10.91,9.938,7.47,12.889,10.689,200.0,608.0
2015-06-06,Beijing,China,116.4167,39.9167,[115.9167 39.4167 116.9167 40.4167],8.529,6.506,12.036,10.702,10.111,7.669,13.169,10.872,210.0,605.0
2015-06-07,Beijing,China,116.4167,39.9167,[115.9167 39.4167 116.9167 40.4167],7.747,6.242,11.89,10.712,9.993,7.7,13.261,10.916,172.0,600.0
2015-06-08,Beijing,China,116.4167,39.9167,[115.9167 39.4167 116.9167 40.4167],7.723,6.033,11.614,10.489,9.932,7.77,13.277,10.927,153.0,612.0
2015-06-09,Beijing,China,116.4167,39.9167,[115.9167 39.4167 116.9167 40.4167],7.783,6.325,11.852,10.848,10.085,7.846,13.36,10.983,170.0,611.0
2015-06-10,Beijing,China,116.4167,39.9167,[115.9167 39.4167 116.9167 40.4167],8.052,6.442,13.023,11.423,9.698,7.579,13.258,10.768,152.0,616.0
2015-06-11,Beijing,China,116.4167,39.9167,[115.9167 39.4167 116.9167 40.4167],8.018,6.442,11.89,11.157,9.954,7.781,13.312,10.924,162.0,610.0
2015-06-12,Beijing,China,116.4167,39.9167,[115.9167 39.4167 116.9167 40.4167],8.052,6.535,11.89,11.137,9.695,7.599,13.085,10.73,167.0,612.0
2015-06-13,Beijing,China,116.4167,39.9167,[115.9167 39.4167 116.9167 40.4167],7.943,6.61,11.0,10.349,9.562,7.461,12.843,10.472,198.0,606.0